Year,Month,Day,Hour,Minute,Value (Times are PST for temperature in C)
2010,08,11,00,00,14.90
2010,08,11,00,01,14.90
2010,08,11,00,02,14.90
2010,08,11,00,03,14.80
2010,08,11,00,04,14.80
2010,08,11,00,05,14.80
2010,08,11,00,06,14.80
2010,08,11,00,07,14.80
2010,08,11,00,08,14.80
2010,08,11,00,09,14.80
2010,08,11,00,10,14.80
2010,08,11,00,11,14.80
2010,08,11,00,12,14.80
2010,08,11,00,13,14.80
2010,08,11,00,14,14.70
2010,08,11,00,15,14.70
2010,08,11,00,16,14.70
2010,08,11,00,17,14.70
2010,08,11,00,18,14.70
2010,08,11,00,19,14.70
2010,08,11,00,20,14.70
2010,08,11,00,21,14.70
2010,08,11,00,22,14.70
2010,08,11,00,23,14.70
2010,08,11,00,24,14.70
2010,08,11,00,25,14.70
2010,08,11,00,26,14.70
2010,08,11,00,27,14.70
2010,08,11,00,28,14.70
2010,08,11,00,29,14.70
2010,08,11,00,30,14.70
2010,08,11,00,31,14.60
2010,08,11,00,32,14.60
2010,08,11,00,33,14.60
2010,08,11,00,34,14.60
2010,08,11,00,35,14.60
2010,08,11,00,36,14.50
2010,08,11,00,37,14.50
2010,08,11,00,38,14.50
2010,08,11,00,39,14.50
2010,08,11,00,40,14.50
2010,08,11,00,41,14.50
2010,08,11,00,42,14.50
2010,08,11,00,43,14.50
2010,08,11,00,44,14.50
2010,08,11,00,45,14.50
2010,08,11,00,46,14.50
2010,08,11,00,47,14.50
2010,08,11,00,48,14.50
2010,08,11,00,49,14.50
2010,08,11,00,50,14.40
2010,08,11,00,51,14.40
2010,08,11,00,52,14.40
2010,08,11,00,53,14.40
2010,08,11,00,54,14.40
2010,08,11,00,55,14.40
2010,08,11,00,56,14.40
2010,08,11,00,57,14.40
2010,08,11,00,58,14.40
2010,08,11,00,59,14.40
2010,08,11,01,00,14.40
2010,08,11,01,01,14.40
2010,08,11,01,02,14.40
2010,08,11,01,03,14.40
2010,08,11,01,04,14.30
2010,08,11,01,05,14.30
2010,08,11,01,06,14.30
2010,08,11,01,07,14.30
2010,08,11,01,08,14.30
2010,08,11,01,09,14.20
2010,08,11,01,10,14.20
2010,08,11,01,11,14.20
2010,08,11,01,12,14.20
2010,08,11,01,13,14.10
2010,08,11,01,14,14.10
2010,08,11,01,15,14.10
2010,08,11,01,16,14.10
2010,08,11,01,17,14.10
2010,08,11,01,18,14.10
2010,08,11,01,19,14.10
2010,08,11,01,20,14.10
2010,08,11,01,21,14.10
2010,08,11,01,22,14.10
2010,08,11,01,23,14.10
2010,08,11,01,24,14.10
2010,08,11,01,25,14.10
2010,08,11,01,26,14.10
2010,08,11,01,27,14.10
2010,08,11,01,28,14.10
2010,08,11,01,29,14.10
2010,08,11,01,30,14.00
2010,08,11,01,31,14.00
2010,08,11,01,32,14.00
2010,08,11,01,33,14.00
2010,08,11,01,34,14.00
2010,08,11,01,35,13.90
2010,08,11,01,36,13.90
2010,08,11,01,37,13.90
2010,08,11,01,38,13.90
2010,08,11,01,39,13.90
2010,08,11,01,40,13.90
2010,08,11,01,41,13.90
2010,08,11,01,42,13.80
2010,08,11,01,43,13.80
2010,08,11,01,44,13.80
2010,08,11,01,45,13.80
2010,08,11,01,46,13.80
2010,08,11,01,47,13.80
2010,08,11,01,48,13.80
2010,08,11,01,49,13.80
2010,08,11,01,50,13.80
2010,08,11,01,51,13.80
2010,08,11,01,52,13.80
2010,08,11,01,53,13.80
2010,08,11,01,54,13.80
2010,08,11,01,55,13.80
2010,08,11,01,56,13.80
2010,08,11,01,57,13.80
2010,08,11,01,58,13.80
2010,08,11,01,59,13.80
2010,08,11,02,00,13.80
2010,08,11,02,01,13.80
2010,08,11,02,02,13.80
2010,08,11,02,03,13.80
2010,08,11,02,04,13.80
2010,08,11,02,05,13.80
2010,08,11,02,06,13.80
2010,08,11,02,07,13.80
2010,08,11,02,08,13.80
2010,08,11,02,09,13.80
2010,08,11,02,10,13.70
2010,08,11,02,11,13.70
2010,08,11,02,12,13.70
2010,08,11,02,13,13.70
2010,08,11,02,14,13.70
2010,08,11,02,15,13.70
2010,08,11,02,16,13.70
2010,08,11,02,17,13.60
2010,08,11,02,18,13.60
2010,08,11,02,19,13.60
2010,08,11,02,20,13.60
2010,08,11,02,21,13.60
2010,08,11,02,22,13.60
2010,08,11,02,23,13.60
2010,08,11,02,24,13.60
2010,08,11,02,25,13.60
2010,08,11,02,26,13.60
2010,08,11,02,27,13.60
2010,08,11,02,28,13.60
2010,08,11,02,29,13.60
2010,08,11,02,30,13.60
2010,08,11,02,31,13.60
2010,08,11,02,32,13.60
2010,08,11,02,33,13.60
2010,08,11,02,34,13.60
2010,08,11,02,35,13.60
2010,08,11,02,36,13.60
2010,08,11,02,37,13.60
2010,08,11,02,38,13.60
2010,08,11,02,39,13.60
2010,08,11,02,40,13.60
2010,08,11,02,41,13.60
2010,08,11,02,42,13.60
2010,08,11,02,43,13.60
2010,08,11,02,44,13.60
2010,08,11,02,45,13.60
2010,08,11,02,46,13.60
2010,08,11,02,47,13.60
2010,08,11,02,48,13.60
2010,08,11,02,49,13.50
2010,08,11,02,50,13.50
2010,08,11,02,51,13.50
2010,08,11,02,52,13.50
2010,08,11,02,53,13.50
2010,08,11,02,54,13.50
2010,08,11,02,55,13.50
2010,08,11,02,56,13.50
2010,08,11,02,57,13.50
2010,08,11,02,58,13.50
2010,08,11,02,59,13.50
2010,08,11,03,00,13.50
2010,08,11,03,01,13.50
2010,08,11,03,02,13.50
2010,08,11,03,03,13.50
2010,08,11,03,06,13.50
2010,08,11,03,07,13.50
2010,08,11,03,08,13.50
2010,08,11,03,09,13.50
2010,08,11,03,10,13.50
2010,08,11,03,11,13.50
2010,08,11,03,12,13.50
2010,08,11,03,13,13.50
2010,08,11,03,14,13.50
2010,08,11,03,15,13.50
2010,08,11,03,16,13.50
2010,08,11,03,17,13.50
2010,08,11,03,18,13.50
2010,08,11,03,19,13.50
2010,08,11,03,20,13.40
2010,08,11,03,21,13.40
2010,08,11,03,22,13.40
2010,08,11,03,23,13.40
2010,08,11,03,24,13.40
2010,08,11,03,25,13.40
2010,08,11,03,26,13.40
2010,08,11,03,27,13.40
2010,08,11,03,28,13.40
2010,08,11,03,29,13.40
2010,08,11,03,30,13.30
2010,08,11,03,31,13.30
2010,08,11,03,32,13.30
2010,08,11,03,33,13.30
2010,08,11,03,34,13.30
2010,08,11,03,35,13.30
2010,08,11,03,36,13.30
2010,08,11,03,37,13.30
2010,08,11,03,38,13.30
2010,08,11,03,39,13.30
2010,08,11,03,40,13.30
2010,08,11,03,41,13.30
2010,08,11,03,42,13.20
2010,08,11,03,43,13.20
2010,08,11,03,44,13.20
2010,08,11,03,45,13.20
2010,08,11,03,46,13.20
2010,08,11,03,47,13.20
2010,08,11,03,48,13.20
2010,08,11,03,49,13.20
2010,08,11,03,50,13.20
2010,08,11,03,51,13.20
2010,08,11,03,52,13.20
2010,08,11,03,53,13.20
2010,08,11,03,54,13.20
2010,08,11,03,55,13.20
2010,08,11,03,56,13.20
2010,08,11,03,57,13.20
2010,08,11,03,58,13.20
2010,08,11,03,59,13.20
2010,08,11,04,00,13.20
2010,08,11,04,01,13.20
2010,08,11,04,02,13.20
2010,08,11,04,03,13.10
2010,08,11,04,04,13.20
2010,08,11,04,05,13.20
2010,08,11,04,06,13.20
2010,08,11,04,07,13.20
2010,08,11,04,08,13.20
2010,08,11,04,09,13.20
2010,08,11,04,10,13.10
2010,08,11,04,11,13.10
2010,08,11,04,12,13.20
2010,08,11,04,13,13.10
2010,08,11,04,14,13.10
2010,08,11,04,15,13.10
2010,08,11,04,16,13.10
2010,08,11,04,17,13.10
2010,08,11,04,18,13.10
2010,08,11,04,19,13.10
2010,08,11,04,20,13.10
2010,08,11,04,21,13.10
2010,08,11,04,22,13.10
2010,08,11,04,23,13.10
2010,08,11,04,24,13.10
2010,08,11,04,25,13.10
2010,08,11,04,26,13.00
2010,08,11,04,27,13.00
2010,08,11,04,28,13.00
2010,08,11,04,29,13.00
2010,08,11,04,30,12.90
2010,08,11,04,31,12.90
2010,08,11,04,32,12.90
2010,08,11,04,33,12.90
2010,08,11,04,34,12.90
2010,08,11,04,35,12.90
2010,08,11,04,36,12.90
2010,08,11,04,37,12.90
2010,08,11,04,38,12.80
2010,08,11,04,39,12.80
2010,08,11,04,40,12.80
2010,08,11,04,41,12.80
2010,08,11,04,42,12.80
2010,08,11,04,43,12.80
2010,08,11,04,44,12.80
2010,08,11,04,45,12.80
2010,08,11,04,46,12.80
2010,08,11,04,47,12.80
2010,08,11,04,48,12.80
2010,08,11,04,49,12.80
2010,08,11,04,50,12.80
2010,08,11,04,51,12.80
2010,08,11,04,52,12.80
2010,08,11,04,53,12.80
2010,08,11,04,54,12.80
2010,08,11,04,55,12.80
2010,08,11,04,56,12.80
2010,08,11,04,57,12.80
2010,08,11,04,58,12.80
2010,08,11,04,59,12.80
2010,08,11,05,00,12.80
2010,08,11,05,01,12.80
2010,08,11,05,02,12.80
2010,08,11,05,03,12.80
2010,08,11,05,04,12.80
2010,08,11,05,05,12.80
2010,08,11,05,06,12.80
2010,08,11,05,07,12.70
2010,08,11,05,08,12.70
2010,08,11,05,09,12.70
2010,08,11,05,10,12.70
2010,08,11,05,11,12.70
2010,08,11,05,12,12.70
2010,08,11,05,13,12.70
2010,08,11,05,14,12.70
2010,08,11,05,15,12.70
2010,08,11,05,16,12.70
2010,08,11,05,17,12.70
2010,08,11,05,18,12.70
2010,08,11,05,19,12.70
2010,08,11,05,20,12.70
2010,08,11,05,21,12.60
2010,08,11,05,22,12.60
2010,08,11,05,23,12.60
2010,08,11,05,24,12.60
2010,08,11,05,25,12.60
2010,08,11,05,26,12.60
2010,08,11,05,27,12.60
2010,08,11,05,28,12.60
2010,08,11,05,29,12.60
2010,08,11,05,30,12.60
2010,08,11,05,31,12.50
2010,08,11,05,32,12.50
2010,08,11,05,33,12.50
2010,08,11,05,34,12.50
2010,08,11,05,35,12.50
2010,08,11,05,36,12.50
2010,08,11,05,37,12.50
2010,08,11,05,38,12.50
2010,08,11,05,39,12.50
2010,08,11,05,40,12.50
2010,08,11,05,41,12.50
2010,08,11,05,42,12.40
2010,08,11,05,43,12.40
2010,08,11,05,44,12.40
2010,08,11,05,45,12.40
2010,08,11,05,46,12.40
2010,08,11,05,47,12.40
2010,08,11,05,48,12.40
2010,08,11,05,49,12.30
2010,08,11,05,50,12.30
2010,08,11,05,51,12.30
2010,08,11,05,52,12.30
2010,08,11,05,53,12.40
2010,08,11,05,54,12.40
2010,08,11,05,55,12.40
2010,08,11,05,56,12.40
2010,08,11,05,57,12.40
2010,08,11,05,58,12.40
2010,08,11,05,59,12.40
2010,08,11,06,00,12.40
2010,08,11,06,01,12.40
2010,08,11,06,02,12.50
2010,08,11,06,03,12.40
2010,08,11,06,04,12.40
2010,08,11,06,05,12.40
2010,08,11,06,06,12.40
2010,08,11,06,07,12.40
2010,08,11,06,08,12.40
2010,08,11,06,09,12.40
2010,08,11,06,10,12.40
2010,08,11,06,11,12.40
2010,08,11,06,12,12.40
2010,08,11,06,13,12.40
2010,08,11,06,14,12.40
2010,08,11,06,15,12.40
2010,08,11,06,16,12.40
2010,08,11,06,17,12.40
2010,08,11,06,18,12.40
2010,08,11,06,19,12.40
2010,08,11,06,20,12.40
2010,08,11,06,21,12.40
2010,08,11,06,22,12.40
2010,08,11,06,23,12.40
2010,08,11,06,24,12.40
2010,08,11,06,25,12.40
2010,08,11,06,26,12.40
2010,08,11,06,27,12.40
2010,08,11,06,28,12.40
2010,08,11,06,29,12.40
2010,08,11,06,30,12.40
2010,08,11,06,31,12.40
2010,08,11,06,32,12.40
2010,08,11,06,33,12.40
2010,08,11,06,34,12.40
2010,08,11,06,35,12.40
2010,08,11,06,36,12.40
2010,08,11,06,37,12.40
2010,08,11,06,38,12.40
2010,08,11,06,39,12.40
2010,08,11,06,40,12.40
2010,08,11,06,41,12.40
2010,08,11,06,42,12.40
2010,08,11,06,43,12.40
2010,08,11,06,44,12.50
2010,08,11,06,45,12.50
2010,08,11,06,46,12.50
2010,08,11,06,47,12.50
2010,08,11,06,48,12.50
2010,08,11,06,49,12.60
2010,08,11,06,50,12.60
2010,08,11,06,51,12.60
2010,08,11,06,52,12.60
2010,08,11,06,53,12.60
2010,08,11,06,54,12.70
2010,08,11,06,55,12.70
2010,08,11,06,56,12.70
2010,08,11,06,57,12.70
2010,08,11,06,58,12.70
2010,08,11,06,59,12.70
2010,08,11,07,00,12.80
2010,08,11,07,01,12.80
2010,08,11,07,02,12.80
2010,08,11,07,03,12.80
2010,08,11,07,04,12.80
2010,08,11,07,05,12.80
2010,08,11,07,06,12.80
2010,08,11,07,07,12.80
2010,08,11,07,08,12.80
2010,08,11,07,09,12.90
2010,08,11,07,10,12.90
2010,08,11,07,11,12.90
2010,08,11,07,12,12.90
2010,08,11,07,13,12.90
2010,08,11,07,14,12.90
2010,08,11,07,15,13.00
2010,08,11,07,16,13.00
2010,08,11,07,17,13.00
2010,08,11,07,18,13.10
2010,08,11,07,19,13.10
2010,08,11,07,20,13.10
2010,08,11,07,21,13.20
2010,08,11,07,22,13.20
2010,08,11,07,23,13.30
2010,08,11,07,24,13.30
2010,08,11,07,25,13.30
2010,08,11,07,26,13.40
2010,08,11,07,27,13.40
2010,08,11,07,28,13.50
2010,08,11,07,29,13.50
2010,08,11,07,30,13.60
2010,08,11,07,31,13.60
2010,08,11,07,32,13.60
2010,08,11,07,33,13.70
2010,08,11,07,34,13.70
2010,08,11,07,35,13.70
2010,08,11,07,36,13.80
2010,08,11,07,37,13.80
2010,08,11,07,38,13.80
2010,08,11,07,39,13.80
2010,08,11,07,40,13.90
2010,08,11,07,41,13.90
2010,08,11,07,42,13.90
2010,08,11,07,43,14.00
2010,08,11,07,44,14.10
2010,08,11,07,45,14.10
2010,08,11,07,46,14.20
2010,08,11,07,47,14.30
2010,08,11,07,48,14.30
2010,08,11,07,49,14.40
2010,08,11,07,50,14.50
2010,08,11,07,51,14.60
2010,08,11,07,52,14.60
2010,08,11,07,53,14.60
2010,08,11,07,54,14.60
2010,08,11,07,55,14.70
2010,08,11,07,56,14.70
2010,08,11,07,57,14.70
2010,08,11,07,58,14.80
2010,08,11,07,59,14.80
2010,08,11,08,00,14.80
2010,08,11,08,01,14.80
2010,08,11,08,02,14.90
2010,08,11,08,03,14.90
2010,08,11,08,04,15.00
2010,08,11,08,05,15.00
2010,08,11,08,06,15.10
2010,08,11,08,07,15.20
2010,08,11,08,08,15.20
2010,08,11,08,09,15.20
2010,08,11,08,10,15.30
2010,08,11,08,11,15.40
2010,08,11,08,12,15.40
2010,08,11,08,13,15.50
2010,08,11,08,14,15.50
2010,08,11,08,15,15.50
2010,08,11,08,16,15.50
2010,08,11,08,17,15.50
2010,08,11,08,18,15.50
2010,08,11,08,19,15.50
2010,08,11,08,20,15.50
2010,08,11,08,21,15.50
2010,08,11,08,22,15.50
2010,08,11,08,23,15.40
2010,08,11,08,24,15.40
2010,08,11,08,25,15.40
2010,08,11,08,26,15.30
2010,08,11,08,27,15.30
2010,08,11,08,28,15.30
2010,08,11,08,29,15.30
2010,08,11,08,30,15.30
2010,08,11,08,31,15.30
2010,08,11,08,32,15.30
2010,08,11,08,33,15.30
2010,08,11,08,34,15.30
2010,08,11,08,35,15.30
2010,08,11,08,36,15.40
2010,08,11,08,37,15.40
2010,08,11,08,38,15.40
2010,08,11,08,39,15.40
2010,08,11,08,40,15.50
2010,08,11,08,41,15.50
2010,08,11,08,42,15.50
2010,08,11,08,43,15.50
2010,08,11,08,44,15.60
2010,08,11,08,45,15.60
2010,08,11,08,46,15.70
2010,08,11,08,47,15.70
2010,08,11,08,48,15.70
2010,08,11,08,49,15.70
2010,08,11,08,50,15.80
2010,08,11,08,51,15.80
2010,08,11,08,52,15.80
2010,08,11,08,53,15.80
2010,08,11,08,54,15.80
2010,08,11,08,55,15.90
2010,08,11,08,56,16.00
2010,08,11,08,57,16.00
2010,08,11,08,58,16.10
2010,08,11,08,59,16.10
2010,08,11,09,00,16.10
2010,08,11,09,01,16.10
2010,08,11,09,02,16.20
2010,08,11,09,03,16.20
2010,08,11,09,04,16.20
2010,08,11,09,05,16.20
2010,08,11,09,06,16.30
2010,08,11,09,07,16.30
2010,08,11,09,08,16.30
2010,08,11,09,09,16.30
2010,08,11,09,10,16.30
2010,08,11,09,11,16.30
2010,08,11,09,12,16.30
2010,08,11,09,13,16.20
2010,08,11,09,14,16.20
2010,08,11,09,15,16.30
2010,08,11,09,16,16.30
2010,08,11,09,17,16.40
2010,08,11,09,18,16.40
2010,08,11,09,19,16.40
2010,08,11,09,20,16.50
2010,08,11,09,21,16.50
2010,08,11,09,22,16.60
2010,08,11,09,23,16.50
2010,08,11,09,24,16.50
2010,08,11,09,25,16.60
2010,08,11,09,26,16.60
2010,08,11,09,27,16.60
2010,08,11,09,28,16.70
2010,08,11,09,29,16.70
2010,08,11,09,30,16.80
2010,08,11,09,31,16.80
2010,08,11,09,32,16.80
2010,08,11,09,33,16.80
2010,08,11,09,34,16.80
2010,08,11,09,35,16.90
2010,08,11,09,36,17.00
2010,08,11,09,37,17.10
2010,08,11,09,38,17.10
2010,08,11,09,39,17.10
2010,08,11,09,40,17.20
2010,08,11,09,41,17.20
2010,08,11,09,42,17.20
2010,08,11,09,43,17.30
2010,08,11,09,44,17.30
2010,08,11,09,45,17.30
2010,08,11,09,46,17.40
2010,08,11,09,47,17.40
2010,08,11,09,48,17.50
2010,08,11,09,49,17.50
2010,08,11,09,50,17.60
2010,08,11,09,51,17.60
2010,08,11,09,52,17.60
2010,08,11,09,53,17.70
2010,08,11,09,54,17.70
2010,08,11,09,55,17.80
2010,08,11,09,56,17.80
2010,08,11,09,57,17.80
2010,08,11,09,58,17.80
2010,08,11,09,59,17.90
2010,08,11,10,00,17.90
2010,08,11,10,01,17.90
2010,08,11,10,02,17.90
2010,08,11,10,03,18.00
2010,08,11,10,04,18.10
2010,08,11,10,05,18.20
2010,08,11,10,06,18.30
2010,08,11,10,07,18.40
2010,08,11,10,08,18.50
2010,08,11,10,09,18.50
2010,08,11,10,10,18.60
2010,08,11,10,11,18.60
2010,08,11,10,12,18.60
2010,08,11,10,13,18.70
2010,08,11,10,14,18.80
2010,08,11,10,15,18.80
2010,08,11,10,16,18.90
2010,08,11,10,17,19.00
2010,08,11,10,18,19.10
2010,08,11,10,19,19.20
2010,08,11,10,20,19.20
2010,08,11,10,21,19.30
2010,08,11,10,22,19.30
2010,08,11,10,23,19.30
2010,08,11,10,24,19.30
2010,08,11,10,25,19.30
2010,08,11,10,26,19.40
2010,08,11,10,27,19.40
2010,08,11,10,28,19.50
2010,08,11,10,29,19.50
2010,08,11,10,30,19.50
2010,08,11,10,31,19.50
2010,08,11,10,32,19.50
2010,08,11,10,33,19.50
2010,08,11,10,34,19.60
2010,08,11,10,35,19.70
2010,08,11,10,36,19.80
2010,08,11,10,37,19.90
2010,08,11,10,38,20.00
2010,08,11,10,39,20.00
2010,08,11,10,40,20.10
2010,08,11,10,41,20.10
2010,08,11,10,42,20.20
2010,08,11,10,43,20.30
2010,08,11,10,44,20.30
2010,08,11,10,45,20.40
2010,08,11,10,46,20.40
2010,08,11,10,47,20.40
2010,08,11,10,48,20.50
2010,08,11,10,49,20.50
2010,08,11,10,50,20.60
2010,08,11,10,51,20.70
2010,08,11,10,52,20.80
2010,08,11,10,53,20.80
2010,08,11,10,54,20.90
2010,08,11,10,55,21.00
2010,08,11,10,56,21.00
2010,08,11,10,57,21.10
2010,08,11,10,58,21.20
2010,08,11,10,59,21.10
2010,08,11,11,00,21.10
2010,08,11,11,01,21.00
2010,08,11,11,02,21.00
2010,08,11,11,03,21.00
2010,08,11,11,04,21.00
2010,08,11,11,05,21.10
2010,08,11,11,06,21.20
2010,08,11,11,07,21.20
2010,08,11,11,08,21.20
2010,08,11,11,09,21.20
2010,08,11,11,10,21.30
2010,08,11,11,11,21.30
2010,08,11,11,12,21.40
2010,08,11,11,13,21.60
2010,08,11,11,14,21.70
2010,08,11,11,15,21.70
2010,08,11,11,16,21.80
2010,08,11,11,17,21.80
2010,08,11,11,18,21.80
2010,08,11,11,19,21.80
2010,08,11,11,20,21.70
2010,08,11,11,21,21.60
2010,08,11,11,22,21.60
2010,08,11,11,23,21.60
2010,08,11,11,24,21.60
2010,08,11,11,25,21.70
2010,08,11,11,26,21.80
2010,08,11,11,27,21.80
2010,08,11,11,28,21.80
2010,08,11,11,29,21.80
2010,08,11,11,30,21.90
2010,08,11,11,31,21.90
2010,08,11,11,32,22.00
2010,08,11,11,33,22.00
2010,08,11,11,34,22.10
2010,08,11,11,35,22.30
2010,08,11,11,36,22.40
2010,08,11,11,37,22.40
2010,08,11,11,38,22.50
2010,08,11,11,39,22.50
2010,08,11,11,40,22.50
2010,08,11,11,41,22.50
2010,08,11,11,42,22.50
2010,08,11,11,43,22.60
2010,08,11,11,44,22.60
2010,08,11,11,45,22.70
2010,08,11,11,46,22.70
2010,08,11,11,47,22.70
2010,08,11,11,48,22.60
2010,08,11,11,49,22.60
2010,08,11,11,50,22.50
2010,08,11,11,51,22.40
2010,08,11,11,52,22.40
2010,08,11,11,53,22.40
2010,08,11,11,54,22.30
2010,08,11,11,55,22.30
2010,08,11,11,56,22.30
2010,08,11,11,57,22.30
2010,08,11,11,58,22.30
2010,08,11,11,59,22.30
2010,08,11,12,00,22.30
2010,08,11,12,01,22.40
2010,08,11,12,02,22.50
2010,08,11,12,03,22.50
2010,08,11,12,04,22.60
2010,08,11,12,05,22.70
2010,08,11,12,06,22.80
2010,08,11,12,07,22.80
2010,08,11,12,08,22.80
2010,08,11,12,09,22.80
2010,08,11,12,10,22.90
2010,08,11,12,11,23.00
2010,08,11,12,12,23.10
2010,08,11,12,13,23.20
2010,08,11,12,14,23.30
2010,08,11,12,15,23.40
2010,08,11,12,16,23.30
2010,08,11,12,17,23.40
2010,08,11,12,18,23.40
2010,08,11,12,19,23.40
2010,08,11,12,20,23.40
2010,08,11,12,21,23.50
2010,08,11,12,22,23.60
2010,08,11,12,23,23.70
2010,08,11,12,24,23.80
2010,08,11,12,25,23.80
2010,08,11,12,26,23.90
2010,08,11,12,27,23.90
2010,08,11,12,28,23.90
2010,08,11,12,29,23.90
2010,08,11,12,30,23.90
2010,08,11,12,31,24.00
2010,08,11,12,32,24.10
2010,08,11,12,33,24.20
2010,08,11,12,34,24.20
2010,08,11,12,35,24.40
2010,08,11,12,36,24.50
2010,08,11,12,37,24.50
2010,08,11,12,38,24.50
2010,08,11,12,39,24.50
2010,08,11,12,40,24.40
2010,08,11,12,41,24.40
2010,08,11,12,42,24.30
2010,08,11,12,43,24.30
2010,08,11,12,44,24.30
2010,08,11,12,45,24.40
2010,08,11,12,46,24.50
2010,08,11,12,47,24.50
2010,08,11,12,48,24.60
2010,08,11,12,49,24.60
2010,08,11,12,50,24.50
2010,08,11,12,51,24.50
2010,08,11,12,52,24.50
2010,08,11,12,53,24.60
2010,08,11,12,54,24.60
2010,08,11,12,55,24.60
2010,08,11,12,56,24.60
2010,08,11,12,57,24.60
2010,08,11,12,58,24.50
2010,08,11,12,59,24.60
2010,08,11,13,00,24.60
2010,08,11,13,01,24.70
2010,08,11,13,02,24.70
2010,08,11,13,03,24.80
2010,08,11,13,04,24.80
2010,08,11,13,05,24.80
2010,08,11,13,06,24.80
2010,08,11,13,07,24.80
2010,08,11,13,08,24.80
2010,08,11,13,09,24.70
2010,08,11,13,10,24.70
2010,08,11,13,11,24.70
2010,08,11,13,12,24.70
2010,08,11,13,13,24.80
2010,08,11,13,14,24.80
2010,08,11,13,15,24.90
2010,08,11,13,16,25.00
2010,08,11,13,17,25.10
2010,08,11,13,18,25.10
2010,08,11,13,19,25.10
2010,08,11,13,20,25.20
2010,08,11,13,21,25.20
2010,08,11,13,22,25.20
2010,08,11,13,23,25.10
2010,08,11,13,24,25.00
2010,08,11,13,25,24.90
2010,08,11,13,26,24.90
2010,08,11,13,27,24.90
2010,08,11,13,28,24.90
2010,08,11,13,29,24.90
2010,08,11,13,30,24.90
2010,08,11,13,31,25.00
2010,08,11,13,32,25.00
2010,08,11,13,33,25.10
2010,08,11,13,34,25.10
2010,08,11,13,35,25.20
2010,08,11,13,36,25.30
2010,08,11,13,37,25.30
2010,08,11,13,38,25.40
2010,08,11,13,39,25.50
2010,08,11,13,40,25.50
2010,08,11,13,41,25.50
2010,08,11,13,42,25.50
2010,08,11,13,43,25.40
2010,08,11,13,44,25.40
2010,08,11,13,45,25.40
2010,08,11,13,46,25.40
2010,08,11,13,47,25.30
2010,08,11,13,48,25.30
2010,08,11,13,49,25.30
2010,08,11,13,50,25.30
2010,08,11,13,51,25.30
2010,08,11,13,52,25.40
2010,08,11,13,53,25.50
2010,08,11,13,54,25.60
2010,08,11,13,55,25.70
2010,08,11,13,56,25.80
2010,08,11,13,57,25.80
2010,08,11,13,58,25.80
2010,08,11,13,59,25.70
2010,08,11,14,00,25.80
2010,08,11,14,01,25.80
2010,08,11,14,02,25.90
2010,08,11,14,03,26.00
2010,08,11,14,04,26.00
2010,08,11,14,05,26.10
2010,08,11,14,06,26.20
2010,08,11,14,07,26.20
2010,08,11,14,08,26.20
2010,08,11,14,09,26.30
2010,08,11,14,10,26.30
2010,08,11,14,11,26.40
2010,08,11,14,12,26.50
2010,08,11,14,13,26.60
2010,08,11,14,14,26.60
2010,08,11,14,15,26.70
2010,08,11,14,16,26.70
2010,08,11,14,17,26.70
2010,08,11,14,18,26.70
2010,08,11,14,19,26.60
2010,08,11,14,20,26.70
2010,08,11,14,21,26.70
2010,08,11,14,22,26.80
2010,08,11,14,23,26.80
2010,08,11,14,24,26.70
2010,08,11,14,25,26.70
2010,08,11,14,26,26.70
2010,08,11,14,27,26.70
2010,08,11,14,28,26.60
2010,08,11,14,29,26.50
2010,08,11,14,30,26.40
2010,08,11,14,31,26.50
2010,08,11,14,32,26.60
2010,08,11,14,33,26.60
2010,08,11,14,34,26.70
2010,08,11,14,35,26.70
2010,08,11,14,36,26.80
2010,08,11,14,37,26.90
2010,08,11,14,38,26.90
2010,08,11,14,39,27.00
2010,08,11,14,40,27.10
2010,08,11,14,41,27.10
2010,08,11,14,42,27.20
2010,08,11,14,43,27.20
2010,08,11,14,44,27.20
2010,08,11,14,45,27.20
2010,08,11,14,46,27.30
2010,08,11,14,47,27.40
2010,08,11,14,48,27.40
2010,08,11,14,49,27.50
2010,08,11,14,50,27.50
2010,08,11,14,51,27.50
2010,08,11,14,52,27.40
2010,08,11,14,53,27.40
2010,08,11,14,54,27.40
2010,08,11,14,55,27.40
2010,08,11,14,56,27.30
2010,08,11,14,57,27.20
2010,08,11,14,58,27.20
2010,08,11,14,59,27.30
2010,08,11,15,00,27.40
2010,08,11,15,01,27.40
2010,08,11,15,02,27.30
2010,08,11,15,03,27.30
2010,08,11,15,04,27.20
2010,08,11,15,05,27.10
2010,08,11,15,06,27.10
2010,08,11,15,07,27.00
2010,08,11,15,08,26.90
2010,08,11,15,09,26.80
2010,08,11,15,10,26.70
2010,08,11,15,11,26.60
2010,08,11,15,12,26.50
2010,08,11,15,13,26.50
2010,08,11,15,14,26.40
2010,08,11,15,15,26.40
2010,08,11,15,16,26.50
2010,08,11,15,17,26.50
2010,08,11,15,18,26.60
2010,08,11,15,19,26.70
2010,08,11,15,20,26.70
2010,08,11,15,21,26.80
2010,08,11,15,22,26.90
2010,08,11,15,23,26.90
2010,08,11,15,24,26.90
2010,08,11,15,25,26.90
2010,08,11,15,26,27.00
2010,08,11,15,27,27.10
2010,08,11,15,28,27.10
2010,08,11,15,29,27.10
2010,08,11,15,30,27.10
2010,08,11,15,31,26.90
2010,08,11,15,32,26.80
2010,08,11,15,33,26.80
2010,08,11,15,34,26.80
2010,08,11,15,35,26.70
2010,08,11,15,36,26.60
2010,08,11,15,37,26.60
2010,08,11,15,38,26.70
2010,08,11,15,39,26.70
2010,08,11,15,40,26.70
2010,08,11,15,41,26.70
2010,08,11,15,42,26.80
2010,08,11,15,43,26.80
2010,08,11,15,44,26.80
2010,08,11,15,45,26.80
2010,08,11,15,46,26.80
2010,08,11,15,47,26.80
2010,08,11,15,48,26.80
2010,08,11,15,49,26.80
2010,08,11,15,50,26.80
2010,08,11,15,51,26.80
2010,08,11,15,52,26.80
2010,08,11,15,53,26.80
2010,08,11,15,54,26.80
2010,08,11,15,55,26.80
2010,08,11,15,56,26.80
2010,08,11,15,57,26.80
2010,08,11,15,58,26.80
2010,08,11,15,59,26.70
2010,08,11,16,00,26.80
2010,08,11,16,01,26.80
2010,08,11,16,02,26.80
2010,08,11,16,03,26.80
2010,08,11,16,04,26.80
2010,08,11,16,05,26.80
2010,08,11,16,06,26.80
2010,08,11,16,07,26.70
2010,08,11,16,08,26.70
2010,08,11,16,09,26.60
2010,08,11,16,10,26.60
2010,08,11,16,11,26.50
2010,08,11,16,12,26.50
2010,08,11,16,13,26.50
2010,08,11,16,14,26.50
2010,08,11,16,15,26.50
2010,08,11,16,16,26.60
2010,08,11,16,17,26.60
2010,08,11,16,18,26.60
2010,08,11,16,19,26.70
2010,08,11,16,20,26.70
2010,08,11,16,21,26.60
2010,08,11,16,22,26.60
2010,08,11,16,23,26.50
2010,08,11,16,24,26.50
2010,08,11,16,25,26.60
2010,08,11,16,26,26.60
2010,08,11,16,27,26.50
2010,08,11,16,28,26.50
2010,08,11,16,29,26.50
2010,08,11,16,30,26.60
2010,08,11,16,31,26.60
2010,08,11,16,32,26.60
2010,08,11,16,33,26.70
2010,08,11,16,34,26.80
2010,08,11,16,35,26.80
2010,08,11,16,36,26.90
2010,08,11,16,37,27.00
2010,08,11,16,38,27.10
2010,08,11,16,39,27.20
2010,08,11,16,40,27.20
2010,08,11,16,41,27.10
2010,08,11,16,42,27.00
2010,08,11,16,43,26.90
2010,08,11,16,44,26.90
2010,08,11,16,45,26.90
2010,08,11,16,46,26.80
2010,08,11,16,47,26.80
2010,08,11,16,48,26.80
2010,08,11,16,49,26.70
2010,08,11,16,50,26.70
2010,08,11,16,51,26.70
2010,08,11,16,52,26.60
2010,08,11,16,53,26.60
2010,08,11,16,54,26.60
2010,08,11,16,55,26.60
2010,08,11,16,56,26.70
2010,08,11,16,57,26.80
2010,08,11,16,58,26.80
2010,08,11,16,59,26.90
2010,08,11,17,00,26.90
2010,08,11,17,01,26.90
2010,08,11,17,02,26.90
2010,08,11,17,03,26.90
2010,08,11,17,04,26.80
2010,08,11,17,05,26.80
2010,08,11,17,06,26.80
2010,08,11,17,07,26.80
2010,08,11,17,08,26.80
2010,08,11,17,09,26.80
2010,08,11,17,10,26.80
2010,08,11,17,11,26.80
2010,08,11,17,12,26.70
2010,08,11,17,13,26.70
2010,08,11,17,14,26.60
2010,08,11,17,15,26.60
2010,08,11,17,16,26.60
2010,08,11,17,17,26.60
2010,08,11,17,18,26.70
2010,08,11,17,19,26.70
2010,08,11,17,20,26.80
2010,08,11,17,21,26.90